Weather History for Detroit, MI

Change the Weather History Date:

Thursday, February 2, 2012

  Actual Average Record
Temperature  
Mean Temperature 34 °F -  
Max Temperature 39 °F 32 °F 52 °F (1968)
Min Temperature 28 °F 18 °F -5 °F (1961)
Degree Days  
Heating Degree Days 32    
Moisture  
Dew Point 28 °F    
Average Humidity 75    
Maximum Humidity 89    
Minimum Humidity 65    
Precipitation  
Precipitation 0.00 in - - ()
Sea Level Pressure  
Sea Level Pressure 30.27 in    
Wind  
Wind Speed 4 mph (NNW)    
Max Wind Speed 8 mph    
Max Gust Speed -    
Visibility 10 miles    
Events      
Averages and records for this station are not official NWS values.
T = Trace of Precipitation, MM = Missing Value Source: NWS Daily Summary

Daily Weather History Graph

Daily Weather History Graph

Search for Another Location

Airport:

Trip Planner

Search our weather history database for the weather conditions in past years. The results will help you decide how hot, cold, wet, or windy it might be!

Date:

Astronomy

Feb. 02, 2012 Rise Set
Actual Time 7:45 AM EST 5:46 PM EST
Civil Twilight 7:15 AM EST 6:16 PM EST
Nautical Twilight 6:41 AM EST 6:50 PM EST
Astronomical Twilight 6:08 AM EST 7:23 PM EST
Moon 12:54 PM EST (2/2) 3:28 AM EST (2/2)
Length of Visible Light 11h 01m
Length of Day
10h 01m
Waxing Gibbous, 73% of the Moon is Illuminated
Feb 2
Waxing Gibbous
Feb 7
Full
Feb 14
Last Quarter
Feb 21
New
Feb 29
First Quarter

Hourly Weather History & Observations

Time (EST) Temp. Windchill Dew Point Humidity Pressure Visibility Wind Dir Wind Speed Gust Speed Precip Events Conditions
12:53 AM 39.0 °F 34.8 °F 30.9 °F 73% 30.14 in 10.0 mi North 5.8 mph - N/A   Overcast
1:53 AM 37.9 °F 33.5 °F 30.0 °F 73% 30.13 in 10.0 mi North 5.8 mph - N/A   Overcast
2:53 AM 37.0 °F 34.5 °F 30.0 °F 76% 30.14 in 10.0 mi NNE 3.5 mph - N/A   Overcast
3:53 AM 37.0 °F 32.4 °F 28.9 °F 73% 30.14 in 10.0 mi NNE 5.8 mph - N/A   Overcast
4:53 AM 36.0 °F 33.3 °F 30.0 °F 79% 30.16 in 10.0 mi North 3.5 mph - N/A   Overcast
5:53 AM 36.0 °F - 30.9 °F 82% 30.17 in 10.0 mi Calm Calm - N/A   Overcast
6:23 AM 35.6 °F - 30.2 °F 81% 30.16 in 9.0 mi Calm Calm - N/A   Overcast
6:53 AM 36.0 °F - 30.0 °F 79% 30.18 in 10.0 mi Calm Calm - N/A   Overcast
7:53 AM 36.0 °F 33.3 °F 30.0 °F 79% 30.21 in 10.0 mi NW 3.5 mph - N/A   Overcast
8:32 AM 35.6 °F 32.8 °F 30.2 °F 81% 30.21 in 9.0 mi NW 3.5 mph - N/A   Overcast
8:53 AM 36.0 °F 31.1 °F 30.0 °F 79% 30.24 in 9.0 mi NW 5.8 mph - N/A   Overcast
9:53 AM 36.0 °F 31.1 °F 30.0 °F 79% 30.25 in 10.0 mi North 5.8 mph - N/A   Overcast
10:53 AM 36.0 °F 30.3 °F 28.9 °F 76% 30.27 in 10.0 mi NW 6.9 mph - N/A   Overcast
11:53 AM 37.0 °F 31.0 °F 28.0 °F 70% 30.28 in 10.0 mi NNW 8.1 mph - N/A   Overcast
12:53 PM 37.0 °F 31.6 °F 27.0 °F 67% 30.28 in 10.0 mi NW 6.9 mph - N/A   Overcast
1:53 PM 37.9 °F 33.5 °F 27.0 °F 65% 30.29 in 10.0 mi NW 5.8 mph - N/A   Overcast
2:53 PM 37.9 °F 32.1 °F 27.0 °F 65% 30.31 in 10.0 mi West 8.1 mph - N/A   Overcast
3:53 PM 37.9 °F 33.5 °F 27.0 °F 65% 30.33 in 10.0 mi NW 5.8 mph - N/A   Overcast
4:53 PM 37.9 °F 35.5 °F 27.0 °F 65% 30.34 in 10.0 mi NW 3.5 mph - N/A   Scattered Clouds
5:08 PM 37.4 °F 32.1 °F 26.6 °F 65% 30.33 in 10.0 mi NNW 6.9 mph - N/A   Mostly Cloudy
5:53 PM 37.0 °F - 27.0 °F 67% 30.36 in 10.0 mi Calm Calm - N/A   Overcast
6:17 PM 37.4 °F - 26.6 °F 65% 30.35 in 10.0 mi Calm Calm - N/A   Scattered Clouds
6:53 PM 35.1 °F - 27.0 °F 72% 30.38 in 10.0 mi Calm Calm - N/A   Partly Cloudy
7:53 PM 32.0 °F - 26.1 °F 79% 30.40 in 10.0 mi Calm Calm - N/A   Clear
8:53 PM 30.9 °F - 26.1 °F 82% 30.40 in 10.0 mi Calm Calm - N/A   Clear
9:53 PM 28.9 °F - 26.1 °F 89% 30.42 in 10.0 mi Calm Calm - N/A   Clear
10:53 PM 30.0 °F - 26.1 °F 85% 30.42 in 10.0 mi Calm Calm - N/A   Clear
11:53 PM 28.9 °F - 26.1 °F 89% 30.43 in 10.0 mi Calm Calm - N/A   Clear